Tracking 31027 objects as of 18-Jul-2025
HD Live streaming from Space Station
objects crossing your sky now

DELTA 1 DEB

Track DELTA 1 DEB now!
10-day predictions


NORAD ID: 20012
Int'l Code: 1976-077FM
Perigee: 1,249.9 km
Apogee: 1,353.0 km
Inclination: 102.0 °
Period: 111.5 minutes
Semi major axis: 7672 km
RCS: 0.0142 m2 (small)
Launch date: July 29, 1976
Source: United States (US)
Launch site: AIR FORCE WESTERN TEST RANGE (AFWTR)

Note: This is SATELLITE DEBRIS
Your satellite tracking list
Your tracking list is empty




NASA's NSSDC Master Catalog

Two Line Element Set (TLE):
1 20012U 76077FM  25195.07162976  .00000219  00000-0  10020-2 0  9999
2 20012 102.0478 228.0724 0067158 327.1858  57.7095 12.91825531547270
Source of the keplerian elements: AFSPC